Location: Eimen
(51.8766°N, 9.7806°E)
Time: 09:01:01
(UTC+00:00)

Cosmos 2278 - Pass Details

Date: 23 May 2024
Orbit: 837 x 853 km, 71.1° (Epoch: 23 June)

Event Time Altitude Azimuth Distance (km) Brightness Sun altitude
Rises 00:32:38 0° 329° (NNW) 3,431 7.5 -15.7°
Reaches altitude 10° 00:35:06 10° 329° (NNW) 2,493 6.7 -15.5°
Maximum altitude 00:40:51 88° 240° (WSW) 861 3.7 -15.2°
Drops below altitude 10° 00:46:34 10° 152° (SSE) 2,479 5.8 -14.9°
Enters shadow 00:46:59 - 152° (SSE) 2,641 5.9 -14.9°
